Powrót do katalogu

FENGYUN 1C DEB

AktywnySSO
NORAD 30652·DEBRIS·🇨🇳 China

Wystrzelony May 10, 1999 z Taiyuan Satellite Launch Center

Loading…

Następne Przeloty (najbliższe 24 godziny)

TLE

ŚwieżeSource: Space-Track

Epoka: Sep 14, 2026, 08:34 UTC

1 30652U 99025APJ 26257.35743446  .00000057  00000-0  58512-4 0  9996
2 30652  98.7556 287.5638 0007906 201.8567 171.2971 14.07886858  5703

Śledź FENGYUN 1C DEB w czasie rzeczywistym z AllMySat

Download on the App Store